OPS 4682 DEB, 38427

Orbit data source: Space-Track

OPS 4682 DEB, 38427 is space debris in LEO originally from a launch on Sat, 03 Apr 1965 UTC launched from the Air Force Western Test Range (AFWTR). Debris objects in space refer to the collection of defunct objects orbiting the Earth. Examples of debris include non-operational satellites, rocket bodies, and fragments generated from explosions, collisions, or faulty payload assembly.

Loading next visibility...
Identifier
38427, 1965-027EG
Orbit
LEO
Country
Flag of USUS
Related business
Manufacturer
Unknown
Mission
Spacecraft
Bus & Motor
Unknown
Mass
Unknown
Launch date (UTC)
1965-04-03 (61 years ago)
Launch vehicle
Unknown
Launch site
Air Force Western Test Range (AFWTR)
Object type
Payload
Rocket body
Debris
Shape & HBR
Unknown shape, 0.1 m
Radar Cross Section
Small (<0.1 m²)

Expand to show TLE details & history
Last TLE update: 19 hours ago

TLE from 19 hours ago
0 OPS 4682 DEB
1 38427U 65027EG  25293.92967131 -.00000491  00000-0 -18652-2 0  9993
2 38427  90.2362 355.5642 0034045  88.6887 271.8130 12.91512180630864
Epoch: 2025-10-20T22:18Z
TLE epoch observation values (Epoch: 2025-10-20T22:18:43.601Z)
Latitude
-0.00002°
Longitude
-8.7424°
Altitude
1,297.658 km
Speed
7.208 km/s
True Right ascension
23h 42m 15s
True Declination
0° 00' 00"
Sunlit
Object was in full shadow at epoch
Visualization orbit readout
Latitude
Unknown
Longitude
Unknown
Altitude
Unknown
Speed
Unknown
Apparent Right ascension
Unknown
Apparent Declination
Unknown
Sunlit
N/A
Visualization observer readout
Local Sidereal Time
12:40:33
Azimuth
Unknown
Elevation
Unknown
Doppler factor
Unknown
Orbital elements
Apogee altitude
1,318.779 km
Perigee altitude
1,266.549 km
Semi-major axis
7,670.801 km
Eccentricity
0.0034
Inclination
90.2362°
RAAN
355.5642°
Arg. of periapsis
88.6887°
True anomaly
271.42302°
Mean anomaly
271.813°
Eccentric anomaly
271.61801°
Mean motion
3.23059 °/min
Orbital period
111.43 mins
BSTAR
-0.0018652
Loading maneuver chart data...
Computing Atmospheric mass density...
Loading historical data...
Loading historical data...
Loading historical data...
Loading historical data...
Loading historical data...
Loading historical data...
Loading historical data...

Documentation

Showing up to 5 results
|